Location: Allison Elementary School
(34.0784°N, 117.7317°W)
Time: 02:13:05
(UTC+00:00)

OE (NEXTSAT) - Pass Details

Date: 15 November 2019
Orbit: 433 x 442 km, 46.0° (Epoch: 13 December)

Event Time Altitude Azimuth Distance (km) Brightness Sun altitude
Rises 01:33:13 0° 304° (NW) 2,405 8.7 -9.7°
Reaches altitude 10° 01:35:20 10° 304° (NW) 1,533 7.7 -10.2°
Maximum altitude 01:38:48 87° 220° (SW) 435 4.3 -10.8°
Drops below altitude 10° 01:42:15 10° 126° (SE) 1,524 6.7 -11.5°
Enters shadow 01:42:44 - 126° (SE) 1,717 7.0 -11.6°
